[[{"header":{"parameterUnit":"m.s-1","parameterCategory":1,"la1":30.2991,"la2":30.254,"lo1":-89.0895,"lo2":-89.0444,"dy":0.0017,"dx":0.0017,"nx":28,"ny":28,"refTime":"2025-01-22T09:00:00:Z","depth":0,"parameterNumber":2,"parameterNumberName":"U-component_of_WINDS"},"data":[0,0,0,0,0,0,0,0,0,0,0,0,0,0,0,0,0,0,0,0,0,0,0,0,0,0,0,0,0,0,0,0,0,0,0,0,0,0,0,0,0,0,0,0,0,0,0,0,0,0,0,0,0,0,0,0,0,0,0.0401,0.0401,0,0.0349,0.0349,0.0348,0.0352,0.0352,0.0353,0.0354,0.0296,0.0293,0.0291,0,0,0,0,0,0,0,0,0,0,0,0,0,0.0499,0.0497,0.0401,0.0401,0.04,0.0349,0.0349,0.0348,0.0351,0.0352,0.0353,0.0354,0.0296,0.0294,0.0291,0,0,0,0,0,0,0,0,0,0,0,0,0,0.0453,0.0497,0.0401,0.0396,0.0395,0.035,0.0349,0.0348,0.0351,0.0352,0.0354,0.0355,0.0297,0.0294,0.0291,0.0246,0,0,0.028,0.0279,0,0,0,0,0,0,0,0,0.0455,0.0449,0.0397,0.0396,0.0395,0.0358,0.0362,0.0314,0.0351,0.0368,0.0354,0.0355,0.0315,0.031,0.0298,0.0243,0.0241,0.028,0.0278,0.0276,0.0275,0,0,0,0,0,0,0,0.0458,0.0451,0.0381,0.0396,0.0395,0.0394,0.0389,0.0353,0.0335,0.0366,0.0366,0.036,0.0315,0.0301,0.0297,0.024,0.028,0.0277,0.0275,0.0274,0.0146,0.0145,0,0,0,0,0,0,0.0464,0.0454,0.0382,0.0379,0.0429,0.0392,0.0386,0.0369,0.0336,0.0332,0.0359,0.0361,0.0306,0.0301,0.0295,0.024,0.0276,0.0273,0.0271,0.0147,0.0146,0.0144,0,0,0,0,0,0,0.0466,0.0457,0.0384,0.0416,0.0407,0.0389,0.037,0.0367,0.0354,0.0331,0.0327,0.0349,0.0307,0.0299,0.0258,0.0238,0.0272,0.0269,0.0149,0.0147,0.0145,0.0131,0,0,0,0,0,0,0.0468,0.0458,0.0442,0.0416,0.0406,0.035,0.0368,0.0365,0.0348,0.0349,0.032,0.0316,0.0307,0.0264,0.0255,0.0234,0.0266,0.0151,0.0148,0.0146,0.0133,0.0129,0.0125,0,0,0,0,0,0.0472,0.0439,0.0441,0.0432,0.0385,0.0349,0.0343,0.0335,0.0347,0.033,0.0315,0.0317,0.0242,0.0259,0.025,0.0227,0.0152,0.0149,0.0146,0.0135,0.0129,0.0125,0,0,0,0,0,0,0.0461,0.0435,0.0437,0.0395,0.0375,0.035,0.0328,0.0329,0.0304,0.0306,0.0295,0.0289,0.0247,0.0233,0.0253,0.0182,0.0198,0.0193,0.0193,0.0188,0.0184,0.0187,0.0263,0,0,0,0,0,0.0454,0.0428,0.0407,0.0371,0.0361,0.0347,0.033,0.0326,0.0304,0.0294,0.0277,0.0253,0.0224,0.0205,0.0178,0.0131,0.0124,0.0111,0.0107,0.0104,0.0099,0.0073,0.0067,0.0134,0.0134,0.0135,0,0,0.0438,0.0421,0.0405,0.0369,0.0352,0.0325,0.0339,0.0309,0.0288,0.0289,0.025,0.0236,0.0209,0.0166,0.0145,0.0153,0.0079,0.01,0.0098,0.0094,0.0069,0.0063,0.0057,0.0132,0.0133,0.0133,0,0,0.0396,0.0381,0.035,0.0333,0.0309,0.0299,0.0292,0.0267,0.0259,0.0219,0.022,0.0194,0.0144,0.0125,0.0109,0.006,0.0061,0.0051,0.0029,0.0004,-0.0002,-0.0006,-0.0025,-0.0031,0.0047,0.0047,0.0047,0,0.0379,0.0339,0.0333,0.0303,0.0287,0.0289,0.0257,0.024,0.0207,0.0195,0.0204,0.0142,0.0124,0.0076,0.0064,0.0051,0.0041,0.0054,0.0,-0.0005,-0.0009,-0.0027,-0.0034,0.0046,0.0046,0.0046,0.0046,0,0.0319,0.0291,0.0269,0.0239,0.022,0.0189,0.0177,0.0158,0.0156,0.0145,0.0105,0.0084,0.0051,0.004,0.0036,-0.0009,-0.0004,0.0003,0.0018,-0.0017,-0.0034,-0.004,0.0044,0.0045,0.0045,0.0045,0,0,0.0267,0.0235,0.0227,0.0213,0.0186,0.0164,0.0133,0.0103,0.0087,0.0064,0.0036,-0.0005,0.0001,-0.0017,-0.0023,-0.0045,-0.0083,-0.0035,-0.0036,-0.0044,-0.0136,-0.0141,-0.0149,-0.0082,-0.0083,-0.0084,-0.0134,0,0.0221,0.0167,0.0162,0.0113,0.0087,0.0089,0.0061,0.0041,0.003,0.0005,-0.0007,-0.0037,-0.0026,-0.0037,-0.0059,-0.0073,-0.0102,-0.007,-0.0109,-0.011,-0.0103,-0.0157,-0.0164,-0.0209,-0.014,-0.0141,-0.0142,0,0.016,0.0137,0.0087,0.0064,0.0053,0.0028,0.0001,-0.0023,-0.0046,-0.0052,-0.0072,-0.0075,-0.0109,-0.0091,-0.0138,-0.0116,-0.0133,-0.0142,-0.0144,-0.0149,-0.0129,-0.0165,-0.0224,-0.0231,-0.0152,-0.0151,-0.0151,0,0.0126,0.0083,0.0047,0.0035,0.0008,-0.0009,-0.0022,-0.0043,-0.0061,-0.0086,-0.0097,-0.0126,-0.0142,-0.0165,-0.0176,-0.0162,-0.0223,-0.0206,-0.0231,-0.023,-0.0245,-0.0244,-0.0308,-0.0253,-0.0253,-0.0253,-0.0253,0,0.0075,0.0043,0.0031,0.0009,-0.0027,-0.0033,-0.0068,-0.008,-0.01,-0.0125,-0.0126,-0.015,-0.0162,-0.0189,-0.0197,-0.0236,-0.0243,-0.025,-0.0252,-0.0251,-0.025,-0.0262,-0.026,-0.0255,-0.0255,-0.0254,-0.0254,0,0.003,0.0021,-0.0018,-0.004,-0.0046,-0.0072,-0.0091,-0.0113,-0.0123,-0.0156,-0.0164,-0.018,-0.0211,-0.0224,-0.0263,-0.0268,-0.0313,-0.0312,-0.0305,-0.0306,-0.033,-0.0328,-0.0406,-0.0417,-0.0353,-0.0354,-0.0354,0,-0.0002,-0.0026,-0.005,-0.0066,-0.0079,-0.0105,-0.0123,-0.013,-0.0148,-0.0176,-0.0195,-0.0226,-0.0251,-0.0302,-0.0318,-0.0348,-0.0348,-0.0373,-0.0353,-0.0351,-0.035,-0.0349,-0.0352,-0.0378,-0.0378,-0.0379,-0.0379,0,-0.006,-0.0063,-0.0087,-0.0112,-0.0133,-0.0154,-0.0174,-0.0188,-0.0199,-0.022,-0.0251,-0.027,-0.0309,-0.034,-0.037,-0.0385,-0.0385,-0.0385,-0.0393,-0.0392,-0.0387,-0.0391,-0.0316,-0.0384,-0.0383,-0.0383,-0.0383,-0.0383,-0.01,-0.0121,-0.0141,-0.0168,-0.0184,-0.0203,-0.0225,-0.0236,-0.0262,-0.0293,-0.0296,-0.033,-0.0352,-0.0393,-0.0409,-0.0436,-0.043,-0.044,-0.0443,-0.0446,-0.0448,-0.0381,-0.0442,-0.0442,-0.0441,-0.0441,-0.0441,0,-0.0158,-0.017,-0.0195,-0.0223,-0.0244,-0.0239,-0.0262,-0.0281,-0.031,-0.033,-0.0354,-0.039,-0.042,-0.0438,-0.0468,-0.0487,-0.0488,-0.0495,-0.0494,-0.0498,-0.0452,-0.0443,-0.0494,-0.0494,-0.0494,-0.0494,-0.0494,-0.0494,-0.0191,-0.0226,-0.0232,-0.0275,-0.0288,-0.032,-0.0333,-0.0351,-0.0367,-0.0407,-0.0431,-0.0442,-0.0462,-0.0493,-0.0521,-0.0526,-0.0537,-0.0545,-0.055,-0.0507,-0.0501,-0.0496,-0.0487,-0.0547,-0.0547,-0.0594,-0.0594,-0.0594]},{"header":{"parameterUnit":"m.s-1","parameterCategory":1,"la1":30.2991,"la2":30.254,"lo1":-89.0895,"lo2":-89.0444,"dy":0.0017,"dx":0.0017,"nx":28,"ny":28,"refTime":"2025-01-22T09:00:00:Z","depth":0,"parameterNumber":3,"parameterNumberName":"V-component_of_WINDS"},"data":[0,0,0,0,0,0,0,0,0,0,0,0,0,0,0,0,0,0,0,0,0,0,0,0,0,0,0,0,0,0,0,0,0,0,0,0,0,0,0,0,0,0,0,0,0,0,0,0,0,0,0,0,0,0,0,0,0,0,1.1218,1.1217,0,1.1136,1.1135,1.1134,1.111,1.1111,1.1111,1.1111,1.1025,1.1023,1.102,0,0,0,0,0,0,0,0,0,0,0,0,0,1.1353,1.1351,1.1218,1.1217,1.1216,1.1136,1.1135,1.1134,1.111,1.1111,1.1111,1.1112,1.1026,1.1023,1.102,0,0,0,0,0,0,0,0,0,0,0,0,0,1.1285,1.135,1.1219,1.1195,1.1192,1.1137,1.1135,1.1134,1.111,1.1111,1.1111,1.1112,1.1027,1.1024,1.102,1.0981,0,0,1.1007,1.1005,0,0,0,0,0,0,0,0,1.1289,1.128,1.1199,1.1196,1.1193,1.1134,1.1151,1.1083,1.111,1.1141,1.1111,1.1112,1.1061,1.1054,1.1037,1.0977,1.0974,1.1007,1.1004,1.1003,1.1001,0,0,0,0,0,0,0,1.1294,1.1284,1.1186,1.1198,1.1194,1.1188,1.1179,1.1138,1.1098,1.1138,1.1136,1.1127,1.1059,1.1041,1.1035,1.0973,1.1007,1.1003,1.1001,1.0999,1.0878,1.0877,0,0,0,0,0,0,1.1303,1.1288,1.1188,1.1183,1.1244,1.1185,1.1175,1.1152,1.1099,1.1091,1.1127,1.1126,1.1048,1.104,1.1032,1.0984,1.1003,1.0999,1.0997,1.0878,1.0877,1.0876,0,0,0,0,0,0,1.1306,1.1294,1.1192,1.1235,1.1221,1.1182,1.1157,1.115,1.1132,1.109,1.1082,1.1116,1.1048,1.1038,1.0994,1.098,1.0997,1.0993,1.0879,1.0878,1.0877,1.0887,0,0,0,0,0,0,1.131,1.1295,1.1281,1.1235,1.1219,1.1156,1.1156,1.1148,1.1126,1.1124,1.1077,1.107,1.1048,1.1001,1.099,1.0975,1.099,1.088,1.0879,1.0877,1.0888,1.0887,1.0885,0,0,0,0,0,1.1315,1.1287,1.128,1.1268,1.12,1.1155,1.1146,1.1121,1.1125,1.1109,1.1082,1.1072,1.0984,1.0996,1.0985,1.0968,1.0881,1.0879,1.0877,1.0889,1.0887,1.0885,0,0,0,0,0,0,1.1331,1.128,1.1272,1.1229,1.1196,1.1151,1.1131,1.112,1.1086,1.1086,1.1056,1.1046,1.1005,1.0982,1.0997,1.0929,1.0932,1.0928,1.0945,1.0943,1.0941,1.0947,1.0987,0,0,0,0,0,1.133,1.1298,1.1255,1.122,1.1205,1.1171,1.115,1.1134,1.1099,1.1085,1.1055,1.1021,1.0986,1.0963,1.0928,1.0885,1.0874,1.0868,1.0867,1.0866,1.0862,1.0838,1.0834,1.087,1.0871,1.0871,0,0,1.1326,1.1294,1.1276,1.1223,1.1196,1.1163,1.1159,1.1125,1.11,1.108,1.1037,1.1014,1.0974,1.0931,1.091,1.0911,1.085,1.0864,1.0863,1.086,1.0835,1.0832,1.0829,1.0869,1.0869,1.087,0,0,1.1303,1.1276,1.1244,1.1218,1.1178,1.1155,1.1148,1.1104,1.1088,1.1045,1.1029,1.1,1.0939,1.0912,1.089,1.0858,1.0847,1.0847,1.084,1.0816,1.0813,1.0811,1.0799,1.0795,1.0844,1.0844,1.0844,0,1.1303,1.1254,1.1229,1.1195,1.1172,1.1154,1.1121,1.1097,1.1047,1.1031,1.1033,1.0958,1.093,1.0879,1.0872,1.0855,1.0845,1.0852,1.0816,1.0813,1.081,1.0798,1.0794,1.0844,1.0844,1.0844,1.0844,0,1.1256,1.1222,1.1201,1.1155,1.1129,1.1096,1.1067,1.1044,1.103,1.1008,1.0965,1.0931,1.0889,1.0876,1.0862,1.0824,1.0825,1.0822,1.0825,1.0807,1.0796,1.0791,1.0845,1.0845,1.0844,1.0844,0,0,1.124,1.1181,1.1173,1.1152,1.1107,1.108,1.1046,1.1006,1.0987,1.0954,1.0924,1.0875,1.0871,1.0847,1.083,1.0809,1.0785,1.0808,1.0807,1.0804,1.0741,1.0743,1.0738,1.0778,1.0777,1.0777,1.0744,0,1.121,1.115,1.1127,1.1077,1.1045,1.1028,1.0999,1.0968,1.0946,1.0916,1.0892,1.0857,1.0855,1.084,1.0819,1.0793,1.0772,1.0795,1.075,1.0749,1.076,1.0732,1.0734,1.0705,1.0739,1.0738,1.0738,0,1.1167,1.1134,1.1082,1.1041,1.1027,1.1001,1.0962,1.0934,1.0898,1.0884,1.0857,1.0841,1.0805,1.0812,1.0761,1.0777,1.0758,1.0742,1.074,1.0734,1.0742,1.0725,1.0695,1.0691,1.0731,1.0731,1.0732,0,1.116,1.1102,1.1064,1.1046,1.0997,1.098,1.0959,1.0924,1.0901,1.0868,1.0853,1.0815,1.0794,1.0766,1.074,1.0747,1.0692,1.0696,1.0679,1.0679,1.0667,1.0668,1.0633,1.0656,1.0656,1.0656,1.0656,0,1.1129,1.1097,1.106,1.1036,1.1,1.0974,1.0939,1.0917,1.0886,1.0857,1.084,1.0813,1.0782,1.0751,1.0731,1.0692,1.0683,1.067,1.0665,1.0671,1.0673,1.0657,1.0658,1.0655,1.0655,1.0655,1.0656,0,1.1114,1.1088,1.1044,1.1002,1.0991,1.0966,1.093,1.0906,1.0884,1.0848,1.0838,1.0804,1.0766,1.0739,1.069,1.0677,1.0635,1.063,1.0647,1.0644,1.0628,1.063,1.0582,1.0574,1.0603,1.0603,1.0603,0,1.1096,1.1071,1.1027,1.1006,1.0986,1.0953,1.093,1.0904,1.0881,1.084,1.082,1.0782,1.075,1.0691,1.0662,1.0625,1.0618,1.0604,1.0612,1.062,1.0617,1.0619,1.0616,1.0602,1.0602,1.0602,1.0602,0,1.1065,1.1054,1.1022,1.0985,1.0959,1.0929,1.0898,1.0882,1.0851,1.0826,1.0788,1.0763,1.0715,1.0677,1.0637,1.0615,1.0603,1.06,1.0594,1.0599,1.061,1.0603,1.0643,1.0601,1.0601,1.0601,1.0601,1.0601,1.1047,1.1025,1.099,1.0955,1.093,1.0902,1.0878,1.0853,1.0821,1.078,1.0767,1.0727,1.0693,1.0638,1.0616,1.0585,1.0585,1.0576,1.0573,1.0571,1.0572,1.0616,1.0577,1.0577,1.0577,1.0577,1.0577,0,1.1016,1.0993,1.0961,1.092,1.0892,1.0885,1.0851,1.0828,1.0794,1.0763,1.0732,1.0689,1.0652,1.062,1.0582,1.0563,1.0557,1.0554,1.0555,1.055,1.0574,1.0583,1.056,1.056,1.056,1.056,1.056,1.056,1.0996,1.0957,1.0942,1.089,1.0868,1.0829,1.0811,1.0785,1.076,1.0713,1.0682,1.0662,1.0631,1.059,1.0556,1.0548,1.0534,1.0533,1.0523,1.0546,1.0548,1.055,1.0558,1.053,1.053,1.0501,1.0501,1.05]}]]